QPF
0.00 0.00 0.00 0.00 0.00 0.00 0.00 0.00 0.00 0.00 0.00 0.00 0.01 0.02 0.03 0.05 0.07 0.05 0.01 0.00 0.00 0.00 0.00 0.00 0.00 0.00 0.00 0.00 0.00 0.00 0.00 0.00 0.00 0.00 0.00 0.00 0.00 0.00 0.00 0.00 0.00 0.00 0.00 0.00 0.00 0.00 0.00 0.00 0.00
0.00 0.00 0.00 0.00 0.00 0.00 0.00 0.00 0.00 0.00 0.00 0.00 0.01 0.02 0.04 0.04 0.04 0.04 0.02 0.00 0.00 0.00 0.00 0.00 0.00 0.00 0.00 0.00 0.00 0.00 0.00 0.00 0.00 0.00 0.00 0.00 0.00 0.00 0.00 0.00 0.00 0.00 0.00 0.00 0.00 0.00 0.00 0.00 0.00
0.00 0.00 0.00 0.00 0.00 0.00 0.00 0.00 0.00 0.00 0.00 0.00 0.01 0.05 0.09 0.08 0.04 0.04 0.02 0.01 0.00 0.01 0.00 0.00 0.00 0.00 0.00 0.00 0.00 0.00 0.00 0.00 0.00 0.00 0.00 0.00 0.00 0.00 0.00 0.00 0.00 0.00 0.00 0.00 0.00 0.00 0.00 0.00 0.00
0.00 0.00 0.00 0.00 0.00 0.00 0.00 0.00 0.00 0.00 0.00 0.00 0.01 0.05 0.09 0.10 0.05 0.03 0.04 0.02 0.00 0.01 0.00 0.00 0.00 0.00 0.00 0.00 0.00 0.00 0.00 0.00 0.00 0.00 0.00 0.00 0.00 0.00 0.00 0.00 0.00 0.00 0.00 0.00 0.00 0.00 0.00 0.00 0.00
0.00 0.00 0.00 0.00 0.00 0.00 0.00 0.00 0.00 0.00 0.00 0.00 0.01 0.03 0.09 0.10 0.07 0.05 0.04 0.03 0.01 0.00 0.00 0.00 0.00 0.00 0.00 0.00 0.00 0.00 0.00 0.00 0.00 0.00 0.00 0.00 0.00 0.00 0.00 0.00 0.00 0.00 0.00 0.00 0.00 0.00 0.00 0.00 0.00
0.00 0.00 0.00 0.00 0.00 0.00 0.00 0.00 0.00 0.00 0.00 0.00 0.00 0.02 0.04 0.06 0.09 0.07 0.04 0.04 0.01 0.00 0.00 0.00 0.00 0.01 0.00 0.00 0.00 0.00 0.00 0.00 0.00 0.00 0.00 0.00 0.00 0.01 0.01 0.01 0.01 0.00 0.00 0.00 0.00 0.00 0.00 0.00 0.00
0.00 0.00 0.00 0.00 0.00 0.00 0.00 0.00 0.00 0.00 0.00 0.00 0.00 0.01 0.02 0.03 0.06 0.06 0.04 0.04 0.02 0.02 0.01 0.00 0.00 0.00 0.01 0.01 0.01 0.02 0.02 0.01 0.00 0.00 0.00 0.00 0.00 0.01 0.01 0.01 0.01 0.00 0.00 0.00 0.00 0.00 0.00 0.00 0.00
0.00 0.00 0.00 0.00 0.00 0.00 0.00 0.00 0.00 0.00 0.00 0.01 0.02 0.02 0.01 0.03 0.06 0.07 0.05 0.05 0.04 0.04 0.03 0.01 0.00 0.00 0.00 0.01 0.03 0.04 0.04 0.02 0.01 0.00 0.00 0.00 0.00 0.01 0.01 0.01 0.01 0.00 0.00 0.00 0.00 0.00 0.00 0.00 0.00
0.00 0.00 0.00 0.00 0.00 0.00 0.00 0.00 0.00 0.00 0.00 0.00 0.01 0.01 0.00 0.02 0.05 0.08 0.08 0.07 0.07 0.05 0.05 0.03 0.01 0.01 0.02 0.02 0.03 0.04 0.04 0.04 0.03 0.01 0.01 0.01 0.00 0.00 0.00 0.00 0.01 0.01 0.00 0.00 0.00 0.00 0.00 0.00 0.00
0.00 0.00 0.00 0.00 0.00 0.00 0.00 0.00 0.00 0.00 0.00 0.00 0.00 0.00 0.01 0.03 0.09 0.12 0.10 0.07 0.07 0.05 0.04 0.05 0.05 0.04 0.02 0.01 0.02 0.01 0.01 0.02 0.01 0.00 0.00 0.00 0.00 0.00 0.00 0.00 0.01 0.01 0.01 0.01 0.01 0.01 0.01 0.01 0.00
0.00 0.00 0.00 0.00 0.00 0.00 0.00 0.00 0.00 0.00 0.00 0.00 0.00 0.01 0.02 0.03 0.09 0.12 0.13 0.12 0.09 0.06 0.05 0.06 0.06 0.07 0.06 0.04 0.03 0.01 0.01 0.01 0.01 0.01 0.00 0.00 0.00 0.00 0.01 0.01 0.01 0.01 0.02 0.01 0.01 0.01 0.01 0.01 0.01
0.00 0.00 0.00 0.00 0.00 0.00 0.00 0.00 0.00 0.00 0.00 0.00 0.00 0.01 0.02 0.04 0.09 0.10 0.12 0.16 0.15 0.11 0.10 0.09 0.08 0.09 0.09 0.09 0.05 0.03 0.03 0.03 0.01 0.01 0.00 0.00 0.01 0.02 0.02 0.01 0.02 0.02 0.02 0.01 0.01 0.01 0.01 0.02 0.02
0.00 0.00 0.00 0.00 0.00 0.00 0.00 0.00 0.00 0.00 0.00 0.00 0.00 0.01 0.02 0.04 0.06 0.11 0.12 0.16 0.21 0.18 0.12 0.08 0.09 0.11 0.11 0.11 0.09 0.07 0.06 0.04 0.02 0.02 0.02 0.02 0.02 0.03 0.03 0.03 0.03 0.04 0.03 0.02 0.02 0.02 0.02 0.02 0.03
0.00 0.00 0.00 0.00 0.00 0.00 0.00 0.00 0.00 0.00 0.00 0.00 0.00 0.02 0.04 0.06 0.09 0.12 0.14 0.18 0.19 0.16 0.14 0.12 0.12 0.11 0.10 0.11 0.11 0.11 0.10 0.07 0.06 0.06 0.06 0.05 0.05 0.05 0.06 0.05 0.05 0.06 0.05 0.04 0.03 0.04 0.04 0.04 0.03
0.00 0.00 0.00 0.00 0.00 0.00 0.00 0.00 0.00 0.00 0.00 0.00 0.01 0.02 0.04 0.07 0.09 0.13 0.15 0.19 0.22 0.19 0.18 0.19 0.16 0.16 0.15 0.13 0.13 0.12 0.15 0.12 0.10 0.09 0.09 0.10 0.12 0.11 0.10 0.11 0.10 0.07 0.06 0.05 0.05 0.04 0.04 0.03 0.03
0.00 0.00 0.00 0.00 0.00 0.00 0.00 0.00 0.00 0.00 0.00 0.00 0.01 0.02 0.04 0.06 0.09 0.13 0.14 0.19 0.23 0.23 0.21 0.22 0.16 0.19 0.21 0.22 0.22 0.15 0.15 0.16 0.16 0.17 0.18 0.21 0.21 0.19 0.17 0.16 0.14 0.11 0.08 0.06 0.06 0.05 0.04 0.03 0.02
0.00 0.00 0.00 0.00 0.00 0.00 0.00 0.00 0.00 0.00 0.01 0.01 0.01 0.03 0.04 0.05 0.08 0.12 0.14 0.20 0.26 0.31 0.29 0.28 0.29 0.29 0.29 0.29 0.33 0.29 0.27 0.26 0.25 0.26 0.26 0.26 0.25 0.22 0.19 0.16 0.14 0.12 0.11 0.10 0.08 0.07 0.05 0.04 0.03
0.00 0.00 0.00 0.00 0.00 0.00 0.00 0.00 0.01 0.00 0.01 0.01 0.01 0.02 0.03 0.03 0.05 0.08 0.12 0.20 0.24 0.32 0.36 0.40 0.45 0.44 0.47 0.43 0.35 0.34 0.33 0.35 0.37 0.37 0.36 0.36 0.33 0.25 0.19 0.16 0.16 0.15 0.14 0.12 0.10 0.08 0.06 0.05 0.04
0.00 0.00 0.00 0.00 0.00 0.00 0.00 0.01 0.02 0.02 0.01 0.02 0.02 0.02 0.03 0.03 0.05 0.07 0.11 0.17 0.23 0.36 0.43 0.49 0.52 0.54 0.56 0.52 0.43 0.39 0.40 0.39 0.42 0.46 0.43 0.36 0.31 0.26 0.23 0.22 0.20 0.18 0.16 0.12 0.11 0.08 0.07 0.05 0.05
0.00 0.00 0.00 0.00 0.00 0.01 0.01 0.02 0.04 0.03 0.03 0.03 0.03 0.03 0.04 0.05 0.07 0.08 0.12 0.17 0.27 0.44 0.50 0.59 0.68 0.70 0.66 0.63 0.58 0.54 0.49 0.43 0.39 0.44 0.44 0.36 0.28 0.24 0.23 0.22 0.20 0.17 0.15 0.12 0.10 0.08 0.06 0.05 0.05
0.00 0.00 0.00 0.00 0.01 0.02 0.03 0.04 0.05 0.06 0.05 0.05 0.04 0.05 0.04 0.06 0.09 0.12 0.14 0.16 0.27 0.44 0.55 0.63 0.78 0.78 0.72 0.74 0.71 0.64 0.56 0.44 0.33 0.29 0.30 0.29 0.25 0.23 0.21 0.18 0.17 0.14 0.13 0.11 0.09 0.08 0.08 0.06 0.05
0.00 0.00 0.00 0.00 0.01 0.02 0.03 0.03 0.05 0.06 0.06 0.05 0.05 0.05 0.05 0.05 0.06 0.11 0.15 0.17 0.26 0.39 0.47 0.51 0.67 0.75 0.71 0.75 0.78 0.67 0.53 0.43 0.34 0.28 0.26 0.24 0.23 0.20 0.16 0.14 0.13 0.13 0.13 0.13 0.12 0.09 0.07 0.06 0.05
0.00 0.00 0.00 0.00 0.00 0.01 0.02 0.02 0.04 0.05 0.04 0.04 0.04 0.04 0.05 0.05 0.05 0.08 0.11 0.15 0.19 0.26 0.33 0.38 0.45 0.53 0.61 0.65 0.66 0.57 0.46 0.36 0.26 0.22 0.20 0.15 0.13 0.13 0.13 0.14 0.17 0.18 0.16 0.14 0.10 0.07 0.06 0.05 0.04
0.00 0.00 0.00 0.00 0.00 0.01 0.01 0.02 0.03 0.06 0.07 0.05 0.04 0.04 0.04 0.04 0.04 0.06 0.07 0.09 0.10 0.13 0.19 0.23 0.29 0.34 0.41 0.47 0.48 0.45 0.41 0.33 0.23 0.17 0.14 0.11 0.10 0.10 0.10 0.10 0.09 0.10 0.10 0.07 0.05 0.04 0.04 0.03 0.03
0.00 0.00 0.00 0.00 0.00 0.01 0.01 0.01 0.02 0.03 0.06 0.06 0.05 0.05 0.05 0.04 0.04 0.06 0.07 0.10 0.09 0.10 0.12 0.16 0.24 0.31 0.35 0.38 0.41 0.41 0.38 0.29 0.19 0.11 0.08 0.06 0.06 0.06 0.06 0.05 0.06 0.05 0.04 0.04 0.04 0.04 0.04 0.04 0.03
0.00 0.00 0.00 0.00 0.01 0.01 0.02 0.02 0.02 0.03 0.04 0.06 0.06 0.06 0.07 0.06 0.04 0.06 0.07 0.09 0.10 0.10 0.13 0.16 0.21 0.29 0.33 0.35 0.35 0.35 0.28 0.20 0.13 0.08 0.05 0.05 0.04 0.04 0.04 0.03 0.04 0.03 0.03 0.03 0.02 0.02 0.02 0.01 0.01
0.00 0.00 0.00 0.00 0.01 0.02 0.03 0.04 0.04 0.04 0.05 0.08 0.09 0.08 0.08 0.06 0.06 0.07 0.06 0.07 0.10 0.10 0.11 0.14 0.15 0.16 0.18 0.22 0.23 0.25 0.22 0.15 0.11 0.08 0.07 0.06 0.04 0.03 0.02 0.02 0.03 0.02 0.02 0.01 0.01 0.01 0.01 0.00 0.00
0.00 0.00 0.00 0.00 0.00 0.01 0.02 0.03 0.04 0.06 0.08 0.11 0.11 0.11 0.11 0.09 0.07 0.06 0.05 0.06 0.08 0.09 0.08 0.10 0.13 0.15 0.14 0.13 0.13 0.13 0.13 0.12 0.11 0.09 0.07 0.04 0.03 0.02 0.01 0.01 0.01 0.01 0.01 0.00 0.00 0.00 0.00 0.00 0.00
0.00 0.00 0.01 0.00 0.00 0.01 0.01 0.01 0.02 0.05 0.10 0.11 0.11 0.10 0.10 0.10 0.08 0.06 0.07 0.06 0.05 0.05 0.06 0.07 0.10 0.13 0.14 0.14 0.13 0.11 0.09 0.10 0.11 0.08 0.05 0.03 0.02 0.01 0.01 0.01 0.01 0.01 0.01 0.01 0.00 0.00 0.00 0.00 0.00
0.01 0.01 0.01 0.00 0.01 0.01 0.01 0.04 0.04 0.04 0.08 0.11 0.13 0.15 0.13 0.09 0.07 0.05 0.06 0.05 0.03 0.03 0.05 0.06 0.06 0.07 0.07 0.09 0.12 0.11 0.08 0.07 0.05 0.03 0.02 0.01 0.01 0.01 0.01 0.01 0.01 0.00 0.00 0.00 0.00 0.00 0.01 0.01 0.01
MSLP
1010.68 1011.61 1012.69 1013.74 1014.62 1015.23 1015.54 1015.58 1015.44 1015.24 1015.04 1014.91 1014.82 1014.72 1014.53 1014.20 1013.69 1013.02 1012.27 1011.54 1010.96 1010.61 1010.53 1010.73 1011.13 1011.63 1012.13 1012.54 1012.82 1012.98 1013.05 1013.10 1013.20 1013.40 1013.69 1014.08 1014.51 1014.92 1015.27 1015.53 1015.70 1015.80 1015.87 1015.93 1016.02 1016.15 1016.30 1016.46 1016.61
1011.07 1012.14 1013.29 1014.33 1015.10 1015.51 1015.57 1015.34 1014.92 1014.45 1014.02 1013.69 1013.45 1013.26 1013.04 1012.72 1012.28 1011.72 1011.13 1010.58 1010.20 1010.04 1010.15 1010.51 1011.03 1011.63 1012.20 1012.67 1013.00 1013.19 1013.31 1013.40 1013.53 1013.74 1014.03 1014.39 1014.76 1015.10 1015.37 1015.57 1015.70 1015.78 1015.87 1015.97 1016.12 1016.30 1016.50 1016.69 1016.85
1011.63 1012.80 1013.96 1014.91 1015.52 1015.72 1015.52 1015.01 1014.33 1013.62 1012.98 1012.49 1012.14 1011.87 1011.63 1011.34 1010.97 1010.54 1010.11 1009.76 1009.57 1009.61 1009.90 1010.40 1011.04 1011.71 1012.33 1012.84 1013.20 1013.44 1013.59 1013.72 1013.88 1014.11 1014.39 1014.70 1015.01 1015.27 1015.47 1015.60 1015.69 1015.77 1015.87 1016.03 1016.23 1016.47 1016.72 1016.95 1017.12
1012.34 1013.55 1014.66 1015.48 1015.90 1015.86 1015.42 1014.68 1013.79 1012.90 1012.11 1011.51 1011.07 1010.76 1010.51 1010.25 1009.96 1009.66 1009.38 1009.21 1009.21 1009.43 1009.86 1010.47 1011.18 1011.90 1012.54 1013.05 1013.43 1013.68 1013.87 1014.03 1014.23 1014.46 1014.74 1015.02 1015.28 1015.48 1015.62 1015.70 1015.76 1015.83 1015.96 1016.16 1016.41 1016.70 1016.99 1017.23 1017.41
1013.11 1014.30 1015.30 1015.96 1016.18 1015.94 1015.30 1014.39 1013.36 1012.36 1011.51 1010.85 1010.37 1010.05 1009.80 1009.58 1009.37 1009.17 1009.03 1009.01 1009.17 1009.52 1010.06 1010.74 1011.47 1012.18 1012.80 1013.29 1013.64 1013.90 1014.10 1014.30 1014.53 1014.79 1015.08 1015.35 1015.58 1015.74 1015.83 1015.88 1015.93 1016.00 1016.15 1016.37 1016.66 1016.98 1017.28 1017.53 1017.69
1013.86 1014.96 1015.81 1016.28 1016.30 1015.88 1015.11 1014.11 1013.03 1012.02 1011.17 1010.51 1010.05 1009.73 1009.50 1009.32 1009.16 1009.05 1009.02 1009.12 1009.39 1009.84 1010.44 1011.13 1011.85 1012.51 1013.07 1013.49 1013.81 1014.05 1014.26 1014.49 1014.75 1015.06 1015.37 1015.65 1015.88 1016.04 1016.11 1016.15 1016.19 1016.27 1016.42 1016.66 1016.95 1017.27 1017.57 1017.79 1017.93
1014.45 1015.40 1016.06 1016.33 1016.18 1015.63 1014.79 1013.78 1012.74 1011.79 1011.01 1010.41 1009.99 1009.70 1009.48 1009.32 1009.21 1009.15 1009.20 1009.39 1009.74 1010.25 1010.87 1011.55 1012.22 1012.80 1013.28 1013.63 1013.90 1014.11 1014.32 1014.58 1014.89 1015.24 1015.60 1015.92 1016.17 1016.34 1016.42 1016.46 1016.50 1016.58 1016.73 1016.96 1017.23 1017.53 1017.79 1017.98 1018.09
1014.80 1015.56 1016.01 1016.09 1015.79 1015.16 1014.31 1013.36 1012.42 1011.59 1010.91 1010.40 1010.03 1009.76 1009.56 1009.41 1009.32 1009.31 1009.41 1009.66 1010.07 1010.61 1011.24 1011.89 1012.50 1013.01 1013.40 1013.68 1013.89 1014.08 1014.30 1014.58 1014.94 1015.34 1015.75 1016.12 1016.40 1016.59 1016.69 1016.74 1016.78 1016.86 1017.00 1017.20 1017.45 1017.70 1017.92 1018.06 1018.13
1014.88 1015.43 1015.66 1015.55 1015.14 1014.48 1013.67 1012.81 1012.01 1011.32 1010.77 1010.34 1010.03 1009.78 1009.58 1009.43 1009.34 1009.35 1009.50 1009.80 1010.25 1010.82 1011.46 1012.09 1012.64 1013.09 1013.41 1013.63 1013.81 1013.98 1014.21 1014.53 1014.93 1015.38 1015.83 1016.23 1016.55 1016.76 1016.88 1016.94 1016.98 1017.05 1017.17 1017.35 1017.56 1017.77 1017.94 1018.04 1018.07
1014.72 1015.05 1015.08 1014.82 1014.32 1013.65 1012.91 1012.18 1011.52 1010.97 1010.53 1010.18 1009.89 1009.65 1009.43 1009.26 1009.17 1009.21 1009.39 1009.74 1010.24 1010.85 1011.50 1012.12 1012.65 1013.06 1013.34 1013.54 1013.69 1013.87 1014.11 1014.45 1014.88 1015.36 1015.84 1016.27 1016.61 1016.84 1016.96 1017.03 1017.07 1017.14 1017.25 1017.40 1017.58 1017.76 1017.89 1017.96 1017.97
1014.41 1014.54 1014.40 1014.02 1013.47 1012.83 1012.17 1011.56 1011.03 1010.59 1010.23 1009.93 1009.64 1009.38 1009.13 1008.94 1008.85 1008.90 1009.12 1009.52 1010.07 1010.72 1011.40 1012.03 1012.56 1012.96 1013.24 1013.43 1013.59 1013.78 1014.05 1014.41 1014.86 1015.35 1015.83 1016.26 1016.59 1016.82 1016.95 1017.01 1017.06 1017.12 1017.23 1017.37 1017.54 1017.70 1017.82 1017.89 1017.88
1014.09 1014.06 1013.78 1013.33 1012.76 1012.16 1011.59 1011.08 1010.65 1010.28 1009.97 1009.67 1009.36 1009.06 1008.78 1008.57 1008.47 1008.54 1008.81 1009.26 1009.86 1010.55 1011.25 1011.90 1012.45 1012.86 1013.15 1013.37 1013.55 1013.77 1014.06 1014.44 1014.89 1015.36 1015.83 1016.23 1016.54 1016.75 1016.86 1016.93 1016.98 1017.05 1017.16 1017.31 1017.49 1017.66 1017.80 1017.87 1017.88
1013.86 1013.72 1013.36 1012.87 1012.32 1011.78 1011.28 1010.85 1010.49 1010.16 1009.85 1009.53 1009.18 1008.83 1008.52 1008.28 1008.19 1008.29 1008.59 1009.08 1009.71 1010.43 1011.15 1011.82 1012.37 1012.80 1013.12 1013.37 1013.60 1013.85 1014.16 1014.55 1014.98 1015.44 1015.86 1016.22 1016.49 1016.67 1016.77 1016.83 1016.89 1016.97 1017.11 1017.28 1017.48 1017.68 1017.85 1017.96 1018.00
1013.82 1013.61 1013.22 1012.74 1012.24 1011.76 1011.33 1010.96 1010.63 1010.32 1009.98 1009.62 1009.23 1008.84 1008.49 1008.25 1008.18 1008.29 1008.61 1009.12 1009.76 1010.46 1011.17 1011.82 1012.37 1012.80 1013.14 1013.43 1013.70 1014.00 1014.34 1014.73 1015.15 1015.58 1015.96 1016.27 1016.49 1016.64 1016.72 1016.78 1016.84 1016.95 1017.10 1017.31 1017.54 1017.78 1017.98 1018.14 1018.23
1013.96 1013.72 1013.35 1012.91 1012.47 1012.07 1011.71 1011.39 1011.08 1010.75 1010.39 1009.98 1009.55 1009.14 1008.78 1008.55 1008.49 1008.62 1008.94 1009.43 1010.03 1010.68 1011.32 1011.91 1012.42 1012.84 1013.19 1013.50 1013.82 1014.16 1014.54 1014.95 1015.37 1015.77 1016.11 1016.38 1016.57 1016.68 1016.75 1016.81 1016.88 1017.00 1017.18 1017.41 1017.67 1017.94 1018.19 1018.39 1018.53
1014.21 1013.98 1013.65 1013.28 1012.93 1012.61 1012.32 1012.04 1011.75 1011.41 1011.02 1010.59 1010.14 1009.72 1009.38 1009.17 1009.13 1009.26 1009.56 1009.99 1010.50 1011.04 1011.57 1012.05 1012.48 1012.85 1013.19 1013.53 1013.89 1014.29 1014.72 1015.16 1015.59 1015.99 1016.31 1016.55 1016.72 1016.82 1016.88 1016.94 1017.02 1017.15 1017.34 1017.58 1017.85 1018.14 1018.41 1018.65 1018.84
1014.47 1014.26 1013.99 1013.72 1013.46 1013.23 1013.01 1012.78 1012.51 1012.17 1011.77 1011.33 1010.90 1010.50 1010.20 1010.03 1010.01 1010.13 1010.38 1010.72 1011.10 1011.48 1011.85 1012.18 1012.49 1012.79 1013.11 1013.46 1013.87 1014.33 1014.82 1015.32 1015.79 1016.20 1016.54 1016.78 1016.94 1017.04 1017.10 1017.17 1017.26 1017.39 1017.58 1017.81 1018.08 1018.36 1018.63 1018.88 1019.10
1014.60 1014.43 1014.24 1014.06 1013.92 1013.79 1013.65 1013.47 1013.22 1012.90 1012.52 1012.10 1011.70 1011.36 1011.12 1010.99 1011.00 1011.11 1011.29 1011.50 1011.72 1011.91 1012.08 1012.24 1012.41 1012.62 1012.91 1013.28 1013.74 1014.27 1014.84 1015.42 1015.95 1016.41 1016.77 1017.04 1017.22 1017.34 1017.42 1017.50 1017.59 1017.72 1017.90 1018.10 1018.33 1018.58 1018.84 1019.08 1019.31
1014.52 1014.39 1014.29 1014.23 1014.21 1014.19 1014.13 1014.01 1013.80 1013.50 1013.15 1012.77 1012.43 1012.16 1012.00 1011.93 1011.96 1012.05 1012.16 1012.24 1012.28 1012.28 1012.24 1012.22 1012.24 1012.37 1012.62 1013.01 1013.53 1014.14 1014.81 1015.47 1016.07 1016.60 1017.01 1017.32 1017.54 1017.69 1017.81 1017.91 1018.01 1018.14 1018.29 1018.46 1018.65 1018.85 1019.06 1019.28 1019.50
1014.20 1014.13 1014.14 1014.20 1014.30 1014.39 1014.42 1014.36 1014.18 1013.92 1013.60 1013.28 1013.01 1012.83 1012.74 1012.75 1012.82 1012.89 1012.92 1012.89 1012.76 1012.57 1012.35 1012.15 1012.05 1012.10 1012.33 1012.74 1013.31 1014.01 1014.76 1015.51 1016.20 1016.79 1017.27 1017.63 1017.90 1018.10 1018.25 1018.39 1018.51 1018.64 1018.77 1018.91 1019.05 1019.19 1019.35 1019.52 1019.72
1013.68 1013.70 1013.82 1014.02 1014.25 1014.45 1014.55 1014.54 1014.40 1014.16 1013.88 1013.61 1013.42 1013.32 1013.32 1013.40 1013.51 1013.59 1013.58 1013.44 1013.19 1012.84 1012.47 1012.14 1011.93 1011.92 1012.13 1012.57 1013.20 1013.96 1014.79 1015.62 1016.37 1017.03 1017.56 1017.98 1018.30 1018.55 1018.75 1018.93 1019.08 1019.22 1019.35 1019.46 1019.56 1019.65 1019.76 1019.88 1020.04
1013.06 1013.20 1013.46 1013.81 1014.16 1014.44 1014.61 1014.63 1014.51 1014.29 1014.03 1013.81 1013.67 1013.66 1013.75 1013.91 1014.08 1014.18 1014.15 1013.96 1013.63 1013.18 1012.70 1012.28 1012.01 1011.96 1012.16 1012.62 1013.28 1014.10 1014.98 1015.85 1016.65 1017.35 1017.92 1018.37 1018.74 1019.03 1019.29 1019.51 1019.71 1019.88 1020.02 1020.12 1020.20 1020.26 1020.32 1020.41 1020.53
1012.49 1012.77 1013.18 1013.66 1014.12 1014.48 1014.69 1014.72 1014.59 1014.37 1014.12 1013.93 1013.85 1013.90 1014.08 1014.33 1014.57 1014.72 1014.71 1014.52 1014.15 1013.66 1013.14 1012.67 1012.37 1012.31 1012.51 1012.97 1013.65 1014.48 1015.38 1016.26 1017.07 1017.77 1018.36 1018.83 1019.22 1019.55 1019.85 1020.12 1020.36 1020.57 1020.74 1020.87 1020.95 1021.00 1021.03 1021.09 1021.17
1012.09 1012.52 1013.07 1013.67 1014.21 1014.61 1014.83 1014.84 1014.69 1014.45 1014.19 1014.02 1013.99 1014.12 1014.38 1014.72 1015.04 1015.26 1015.32 1015.16 1014.82 1014.34 1013.82 1013.36 1013.06 1012.99 1013.19 1013.65 1014.33 1015.14 1016.02 1016.87 1017.65 1018.32 1018.89 1019.35 1019.75 1020.10 1020.42 1020.73 1021.02 1021.28 1021.49 1021.64 1021.74 1021.80 1021.84 1021.87 1021.94
1011.93 1012.49 1013.16 1013.84 1014.43 1014.84 1015.03 1015.01 1014.82 1014.54 1014.28 1014.12 1014.13 1014.33 1014.67 1015.11 1015.53 1015.85 1015.99 1015.92 1015.64 1015.22 1014.75 1014.32 1014.05 1014.00 1014.20 1014.64 1015.28 1016.05 1016.87 1017.66 1018.38 1018.99 1019.51 1019.94 1020.32 1020.67 1021.00 1021.34 1021.66 1021.96 1022.21 1022.40 1022.53 1022.61 1022.65 1022.69 1022.75
1012.00 1012.67 1013.41 1014.12 1014.71 1015.09 1015.24 1015.16 1014.92 1014.61 1014.35 1014.21 1014.28 1014.54 1014.98 1015.52 1016.05 1016.47 1016.72 1016.75 1016.57 1016.24 1015.85 1015.49 1015.26 1015.23 1015.43 1015.85 1016.44 1017.14 1017.88 1018.59 1019.22 1019.76 1020.21 1020.59 1020.93 1021.26 1021.59 1021.93 1022.27 1022.58 1022.86 1023.08 1023.23 1023.34 1023.40 1023.46 1023.52
1012.27 1012.98 1013.73 1014.42 1014.95 1015.27 1015.35 1015.21 1014.93 1014.62 1014.37 1014.28 1014.41 1014.76 1015.29 1015.93 1016.56 1017.10 1017.46 1017.60 1017.54 1017.32 1017.03 1016.75 1016.58 1016.58 1016.78 1017.16 1017.70 1018.33 1018.98 1019.59 1020.13 1020.59 1020.97 1021.29 1021.58 1021.87 1022.18 1022.50 1022.83 1023.15 1023.43 1023.65 1023.83 1023.95 1024.03 1024.09 1024.16
1012.62 1013.31 1014.00 1014.61 1015.05 1015.27 1015.27 1015.09 1014.80 1014.51 1014.31 1014.30 1014.52 1014.96 1015.59 1016.32 1017.05 1017.69 1018.15 1018.41 1018.46 1018.35 1018.16 1017.98 1017.87 1017.91 1018.11 1018.48 1018.96 1019.51 1020.08 1020.61 1021.07 1021.45 1021.76 1022.02 1022.26 1022.51 1022.78 1023.08 1023.37 1023.66 1023.92 1024.13 1024.30 1024.42 1024.51 1024.58 1024.66
1012.97 1013.56 1014.13 1014.60 1014.91 1015.03 1014.97 1014.76 1014.50 1014.27 1014.17 1014.26 1014.59 1015.14 1015.86 1016.68 1017.49 1018.20 1018.75 1019.10 1019.25 1019.25 1019.17 1019.07 1019.04 1019.12 1019.34 1019.69 1020.13 1020.62 1021.12 1021.57 1021.97 1022.29 1022.55 1022.77 1022.97 1023.18 1023.41 1023.66 1023.91 1024.15 1024.37 1024.54 1024.68 1024.78 1024.85 1024.92 1025.00
1013.22 1013.66 1014.06 1014.36 1014.53 1014.55 1014.44 1014.25 1014.06 1013.94 1013.97 1014.20 1014.66 1015.32 1016.13 1017.01 1017.87 1018.64 1019.24 1019.66 1019.89 1019.99 1020.00 1019.99 1020.03 1020.16 1020.40 1020.74 1021.15 1021.60 1022.04 1022.45 1022.79 1023.07 1023.30 1023.50 1023.68 1023.86 1024.06 1024.26 1024.46 1024.65 1024.81 1024.93 1025.02 1025.08 1025.12 1025.17 1025.24
Thickness
5773 5775 5774 5763 5738 5717 5719 5734 5747 5752 5758 5770 5774 5771 5765 5763 5757 5758 5788 5797 5795 5790 5786 5782 5778 5776 5774 5773 5772 5772 5771 5770 5769 5768 5766 5765 5763 5762 5760 5758 5757 5756 5754 5752 5751 5750 5748 5747 5745
5771 5772 5763 5746 5720 5704 5714 5736 5745 5754 5765 5772 5773 5772 5768 5769 5779 5782 5788 5792 5791 5786 5783 5779 5776 5773 5771 5770 5768 5767 5766 5765 5764 5763 5762 5761 5759 5758 5756 5755 5754 5752 5751 5749 5748 5747 5745 5744 5742
5770 5767 5747 5728 5712 5709 5723 5744 5751 5760 5769 5770 5768 5772 5771 5771 5780 5784 5789 5790 5787 5782 5779 5776 5773 5770 5768 5766 5765 5763 5762 5761 5759 5758 5758 5757 5755 5754 5753 5751 5750 5749 5748 5746 5745 5744 5742 5741 5740
5760 5748 5733 5718 5715 5725 5737 5751 5755 5755 5763 5769 5768 5765 5773 5784 5787 5790 5792 5789 5784 5779 5775 5773 5771 5768 5766 5763 5761 5759 5758 5757 5755 5754 5753 5753 5751 5750 5749 5748 5747 5745 5744 5743 5742 5741 5740 5739 5737
5748 5730 5716 5706 5717 5731 5743 5752 5755 5753 5757 5765 5766 5763 5770 5785 5792 5792 5791 5787 5782 5776 5772 5770 5767 5765 5763 5760 5757 5756 5754 5752 5752 5751 5750 5749 5748 5747 5746 5744 5743 5742 5741 5740 5739 5738 5737 5736 5735
5726 5715 5698 5696 5713 5731 5743 5754 5755 5754 5757 5763 5763 5762 5770 5783 5787 5788 5789 5785 5781 5775 5770 5767 5764 5761 5759 5757 5754 5752 5750 5749 5748 5747 5746 5745 5744 5743 5742 5741 5740 5738 5738 5737 5736 5735 5734 5733 5733
5716 5703 5696 5702 5711 5723 5743 5753 5751 5751 5752 5759 5767 5760 5768 5778 5784 5787 5785 5783 5778 5773 5768 5764 5761 5758 5755 5753 5751 5749 5747 5745 5744 5744 5743 5742 5740 5739 5738 5737 5736 5735 5734 5733 5733 5732 5732 5731 5730
5718 5702 5700 5699 5708 5719 5740 5748 5752 5752 5754 5768 5770 5759 5763 5776 5782 5782 5780 5777 5773 5769 5765 5762 5758 5755 5753 5750 5748 5746 5744 5742 5741 5740 5739 5738 5736 5735 5735 5734 5733 5732 5731 5730 5730 5729 5729 5729 5728
5718 5691 5686 5698 5707 5719 5735 5738 5747 5757 5757 5762 5768 5771 5776 5780 5779 5775 5771 5768 5765 5762 5760 5758 5756 5753 5750 5748 5745 5743 5740 5739 5737 5736 5735 5734 5733 5732 5731 5730 5729 5729 5728 5727 5727 5726 5727 5726 5726
5703 5683 5692 5706 5715 5722 5729 5731 5738 5744 5746 5752 5759 5768 5776 5775 5773 5769 5766 5763 5760 5758 5757 5755 5753 5750 5747 5745 5743 5740 5738 5736 5734 5733 5732 5731 5729 5728 5728 5727 5726 5725 5725 5724 5724 5724 5724 5724 5724
5703 5693 5702 5711 5718 5721 5722 5728 5736 5736 5735 5747 5754 5760 5765 5767 5766 5765 5765 5765 5762 5758 5754 5752 5749 5747 5744 5742 5739 5737 5735 5733 5731 5730 5728 5727 5726 5725 5724 5724 5723 5722 5722 5722 5721 5721 5721 5721 5721
5699 5702 5707 5713 5721 5720 5721 5727 5729 5732 5740 5755 5760 5761 5761 5761 5762 5762 5761 5761 5759 5755 5752 5749 5746 5743 5741 5739 5736 5734 5732 5730 5728 5727 5725 5723 5722 5721 5721 5721 5720 5719 5719 5719 5718 5718 5718 5718 5718
5697 5701 5709 5714 5714 5716 5719 5720 5724 5730 5743 5751 5755 5756 5755 5756 5757 5758 5758 5755 5754 5751 5749 5747 5744 5741 5739 5736 5733 5731 5729 5728 5726 5724 5722 5721 5719 5718 5718 5718 5717 5717 5716 5715 5715 5714 5714 5714 5713
5698 5700 5703 5707 5711 5715 5714 5716 5718 5726 5736 5740 5744 5745 5748 5750 5752 5751 5750 5748 5747 5747 5745 5743 5740 5737 5735 5733 5731 5728 5725 5724 5723 5721 5720 5718 5717 5716 5715 5715 5714 5713 5713 5712 5712 5711 5710 5709 5709
5695 5692 5695 5703 5707 5710 5710 5704 5711 5721 5726 5727 5732 5735 5738 5741 5743 5745 5746 5744 5743 5742 5741 5738 5736 5733 5730 5728 5727 5724 5721 5720 5719 5717 5716 5715 5714 5713 5711 5711 5710 5710 5709 5708 5707 5706 5705 5704 5703
5686 5678 5675 5689 5698 5703 5698 5687 5704 5711 5714 5715 5719 5724 5727 5730 5734 5738 5740 5739 5739 5737 5734 5733 5732 5730 5727 5724 5721 5719 5717 5716 5715 5713 5711 5710 5709 5708 5707 5706 5706 5705 5704 5703 5702 5701 5699 5697 5696
5662 5657 5665 5675 5689 5692 5687 5681 5693 5702 5704 5704 5708 5712 5716 5719 5723 5728 5732 5733 5732 5730 5727 5725 5724 5722 5720 5718 5715 5714 5711 5709 5708 5707 5705 5705 5704 5703 5702 5701 5700 5700 5699 5698 5697 5695 5693 5690 5689
5653 5655 5659 5663 5677 5680 5675 5675 5685 5692 5694 5694 5698 5702 5706 5708 5711 5717 5722 5724 5724 5723 5721 5719 5717 5715 5713 5711 5709 5707 5705 5702 5701 5700 5699 5699 5698 5698 5696 5695 5694 5694 5693 5692 5690 5688 5685 5683 5682
5659 5655 5653 5662 5675 5671 5668 5669 5675 5681 5685 5686 5688 5692 5695 5698 5703 5708 5712 5715 5716 5716 5715 5713 5711 5708 5707 5704 5702 5700 5695 5694 5693 5692 5692 5692 5691 5691 5690 5689 5687 5687 5686 5684 5683 5680 5677 5674 5673
5653 5649 5650 5661 5672 5669 5663 5663 5669 5673 5675 5678 5680 5682 5685 5688 5692 5697 5702 5705 5706 5707 5708 5708 5704 5703 5702 5699 5699 5696 5690 5687 5685 5684 5684 5684 5684 5683 5683 5681 5680 5679 5678 5676 5674 5673 5669 5666 5665
5653 5648 5653 5655 5662 5663 5659 5653 5659 5665 5668 5671 5673 5675 5677 5681 5683 5686 5691 5694 5696 5696 5698 5699 5698 5697 5696 5693 5690 5687 5683 5680 5677 5676 5674 5674 5675 5675 5674 5673 5672 5670 5670 5668 5666 5666 5664 5659 5656
5649 5663 5660 5657 5649 5642 5651 5635 5649 5656 5658 5661 5663 5665 5667 5671 5674 5677 5681 5684 5686 5686 5687 5689 5690 5690 5688 5686 5684 5680 5678 5673 5669 5666 5664 5663 5664 5664 5664 5663 5662 5661 5660 5659 5657 5656 5655 5653 5649
5660 5667 5661 5656 5647 5639 5641 5634 5638 5650 5651 5654 5656 5657 5659 5661 5664 5666 5669 5672 5674 5676 5677 5678 5680 5681 5682 5680 5678 5674 5669 5663 5659 5656 5655 5653 5653 5653 5653 5652 5651 5650 5649 5648 5647 5645 5644 5642 5639
5666 5658 5650 5638 5632 5626 5636 5631 5632 5643 5649 5651 5652 5652 5652 5653 5655 5656 5658 5661 5663 5666 5668 5668 5670 5671 5671 5671 5670 5666 5661 5655 5650 5647 5645 5643 5642 5641 5641 5641 5640 5639 5638 5636 5635 5633 5632 5630 5627
5656 5638 5620 5619 5611 5617 5633 5630 5630 5645 5650 5650 5647 5645 5645 5644 5645 5646 5648 5650 5651 5653 5655 5657 5659 5659 5658 5658 5656 5654 5650 5646 5641 5637 5636 5634 5632 5630 5629 5630 5628 5627 5626 5625 5623 5622 5619 5617 5615
5649 5638 5617 5610 5608 5614 5626 5625 5634 5643 5646 5645 5642 5639 5637 5635 5635 5635 5636 5638 5639 5641 5643 5645 5646 5644 5644 5644 5642 5639 5636 5633 5629 5627 5626 5624 5622 5619 5619 5619 5617 5616 5615 5613 5611 5609 5607 5604 5601
5644 5635 5635 5618 5615 5610 5616 5626 5633 5638 5637 5636 5633 5630 5627 5625 5625 5625 5625 5626 5628 5629 5630 5632 5633 5632 5631 5630 5628 5626 5624 5622 5618 5615 5614 5613 5611 5609 5608 5606 5605 5604 5602 5600 5598 5595 5593 5590 5587
5650 5638 5621 5614 5607 5605 5615 5620 5624 5632 5631 5629 5626 5623 5619 5616 5614 5614 5614 5614 5616 5617 5618 5619 5620 5619 5618 5616 5615 5613 5612 5609 5606 5604 5601 5600 5598 5597 5595 5593 5592 5590 5588 5586 5584 5581 5579 5577 5573
5642 5635 5624 5613 5612 5606 5605 5615 5634 5634 5632 5626 5621 5617 5612 5608 5605 5604 5603 5603 5604 5605 5606 5607 5606 5606 5605 5603 5601 5600 5598 5595 5593 5591 5589 5587 5585 5584 5582 5580 5577 5576 5574 5572 5571 5568 5565 5562 5559
5644 5638 5625 5617 5613 5610 5606 5612 5631 5632 5628 5622 5615 5610 5605 5601 5597 5594 5593 5593 5593 5593 5593 5593 5592 5591 5590 5589 5588 5586 5583 5581 5579 5577 5575 5574 5571 5569 5568 5566 5564 5562 5560 5558 5557 5555 5552 5549 5545